GFSNGP_850_temp_021.txt.gz
Temp
16 17 18 18 20 21 22 24 25 26 26 27 27 28 28 28 27 29 29 29 30 30 31 31 29 27 26 26 24 24 24 25 27 27 26 25 25 26 25 24 24 24 23 22
15 17 18 18 19 20 21 22 22 23 24 27 25 27 27 28 29 29 29 30 31 31 30 31 31 29 27 26 26 25 25 27 27 25 26 26 24 24 25 24 24 24 23 22
15 16 17 18 20 20 21 22 23 23 25 26 26 27 25 26 27 28 30 31 31 31 31 31 32 32 29 27 25 25 26 26 24 24 25 25 25 24 25 25 25 24 24 23
15 15 15 21 22 21 22 23 24 24 25 26 26 27 26 27 27 28 30 31 31 32 31 32 31 30 29 27 27 26 25 24 25 25 25 24 23 25 25 25 25 25 25 24
14 16 18 18 20 20 20 23 23 21 24 26 26 27 26 26 27 28 28 29 30 31 30 31 31 30 28 28 28 27 27 28 28 27 26 24 23 25 24 24 24 25 25 24
13 14 15 19 21 19 18 20 19 18 20 21 25 26 28 28 29 29 29 29 29 30 31 31 31 30 28 27 27 28 29 28 24 23 23 24 24 22 22 24 25 25 25 25
11 12 16 18 18 17 18 21 18 17 17 17 20 24 25 25 27 28 29 28 29 30 30 31 31 30 29 27 28 28 25 25 25 25 24 24 23 23 22 21 21 23 25 25
11 11 11 17 18 18 18 16 16 17 15 14 16 17 20 21 25 26 27 26 28 28 30 30 30 29 27 25 24 25 24 25 25 24 24 22 22 22 22 21 21 20 21 22
12 13 15 14 14 15 14 15 15 15 15 14 15 18 18 19 21 22 23 24 25 25 27 28 28 28 27 25 24 24 24 25 24 24 23 22 22 22 20 19 20 19 18 19
11 13 14 14 14 15 14 14 14 14 13 13 15 15 17 17 17 20 21 22 22 22 23 23 23 24 24 24 24 24 23 23 23 23 22 22 21 20 19 19 18 18 18 19
10 11 12 13 14 14 13 14 13 13 12 13 14 15 15 15 16 16 19 20 21 22 22 22 23 23 23 23 24 24 24 24 24 23 22 22 22 21 21 21 21 20 19 19
11 12 10 11 11 12 13 13 12 13 13 13 13 13 14 14 15 15 17 18 19 19 21 21 22 22 22 22 23 23 24 24 24 23 22 21 20 21 20 20 20 21 19 19
9 9 8 9 9 11 12 12 13 12 13 14 13 14 14 15 15 15 16 17 18 18 19 19 20 20 21 21 21 22 22 22 22 21 18 18 18 18 18 19 18 18 18 18
8 7 7 9 10 12 11 12 13 12 12 13 13 13 14 14 15 15 16 16 17 17 18 18 18 19 20 20 21 21 21 21 21 19 16 16 16 16 16 17 17 18 19 18
5 6 6 8 9 11 10 11 11 11 11 12 13 13 14 13 14 14 13 14 16 17 17 18 19 19 19 19 20 19 19 18 16 15 15 16 16 16 16 15 16 17 17 18
7 7 8 8 9 10 10 10 11 11 11 12 13 14 14 14 14 14 14 14 16 16 16 17 17 17 17 18 18 18 17 16 16 15 16 15 15 15 18 15 14 12 14 16
6 7 8 9 9 10 10 10 11 11 11 11 12 13 14 14 14 14 14 13 14 15 15 16 16 17 17 17 17 17 17 17 16 15 13 13 15 16 16 15 15 14 13 11
8 9 9 10 9 10 10 10 10 10 10 11 12 13 12 13 12 12 12 13 14 15 15 14 15 16 16 16 16 16 16 17 16 14 13 14 15 15 15 12 12 12 12 13
9 9 9 9 10 10 10 10 10 9 11 12 12 12 11 11 11 12 13 14 14 13 13 13 14 15 15 15 15 15 15 15 15 14 13 13 13 13 13 12 12 13 12 12
7 8 9 9 9 8 8 8 8 9 10 11 11 11 11 11 11 11 12 12 11 11 12 13 13 14 14 14 14 14 14 13 14 14 13 13 13 13 13 13 13 13 13 13
8 7 7 9 8 8 9 9 9 10 11 11 11 11 11 11 11 11 10 10 11 11 12 12 12 12 12 13 13 13 13 14 14 13 13 13 13 13 13 13 13 13 14 14
7 6 6 7 8 7 8 8 9 10 10 10 10 10 10 10 10 10 10 8 9 10 11 11 11 12 12 12 11 11 11 11 11 11 12 12 12 12 12 12 12 12 13 13
7 7 8 8 7 7 8 9 9 9 10 10 10 10 10 9 9 10 9 8 9 10 10 9 10 11 12 11 11 11 11 11 11 11 11 10 10 10 10 10 10 10 10 10
9 9 8 8 8 9 8 8 8 8 8 8 8 8 8 7 7 7 7 8 8 9 9 9 9 10 10 10 10 10 10 10 9 10 10 11 10 10 10 10 9 9 9 9
8 8 9 9 8 7 7 7 8 7 7 7 7 7 7 7 7 6 7 7 7 7 7 8 8 8 8 8 8 8 8 8 8 8 9 9 9 10 9 9 10 10 9 9
7 7 7 7 8 8 7 7 7 5 5 5 5 5 5 5 5 5 5 5 6 6 6 6 6 6 6 6 6 7 7 7 7 7 7 7 7 7 8 8 8 8 8 9
6 6 6 6 6 6 6 6 5 4 3 3 3 3 3 2 2 2 3 3 3 3 3 3 4 4 4 4 4 4 4 5 5 5 4 4 5 5 5 6 6 6 6 6

GFSNGP_850_temp_024.txt.gz
Temp
25 23 24 28 28 29 28 28 29 30 30 31 31 31 31 31 30 30 30 30 30 29 29 28 28 27 26 25 25 25 24 23 22 26 26 26 26 26 26 25 25 25 24 23
21 22 22 23 24 26 28 29 29 29 29 32 31 29 30 29 29 29 30 30 30 30 28 28 28 28 26 25 25 24 24 23 22 21 23 25 24 24 25 25 25 25 25 24
21 22 22 22 23 24 25 26 27 26 28 29 29 29 29 29 29 29 29 29 30 30 30 29 29 29 29 26 24 24 24 22 22 22 23 23 22 22 24 24 22 24 24 24
20 20 19 24 27 26 25 26 26 26 27 28 28 28 28 28 29 29 30 30 30 30 31 31 29 30 28 26 27 25 23 24 22 23 22 20 21 22 23 22 22 24 24 24
18 19 22 23 23 24 24 25 27 27 27 28 27 28 28 28 29 29 29 29 29 30 30 29 29 29 28 26 25 23 25 27 27 24 22 21 22 24 23 22 21 22 22 24
17 17 19 23 24 23 23 22 26 24 25 26 26 27 29 29 29 30 29 29 29 29 28 28 31 29 27 26 25 27 26 25 25 26 24 25 26 24 22 22 23 20 19 23
16 16 19 23 22 21 20 22 22 22 23 22 23 25 24 23 24 25 26 27 27 26 27 29 29 30 27 26 28 26 23 23 23 24 25 25 24 23 22 21 20 20 20 20
15 15 16 20 20 19 19 19 19 20 20 20 20 19 20 20 22 23 25 26 25 24 25 24 27 27 28 29 26 23 22 22 22 23 22 20 21 21 20 19 19 19 19 20
16 16 18 18 18 17 17 18 18 18 19 18 18 18 19 21 22 23 23 23 24 24 23 22 24 23 24 25 23 22 22 22 21 21 20 21 20 20 19 19 20 20 20 20
14 15 16 15 15 16 16 16 17 17 18 18 18 17 18 20 21 21 20 20 21 21 21 20 20 21 21 23 23 23 22 22 21 20 20 20 20 20 20 21 20 20 21 21
13 14 14 15 15 15 15 16 16 17 17 16 16 15 18 20 19 19 18 18 19 19 19 18 18 19 20 22 22 20 20 21 21 21 21 20 20 21 21 21 22 21 21 22
13 14 14 14 15 13 13 13 14 16 16 16 14 14 15 15 15 15 16 16 17 16 16 17 17 19 21 22 22 23 22 22 22 22 23 22 22 21 21 21 21 21 21 21
12 13 13 13 12 11 12 13 14 15 15 13 13 14 13 14 15 15 15 15 16 17 16 16 18 19 19 18 21 21 19 20 19 20 21 21 21 21 22 21 19 19 19 19
10 10 9 10 11 11 12 13 14 14 13 13 13 13 14 14 15 15 16 16 16 16 16 16 17 17 16 15 17 17 19 19 17 17 17 17 17 18 17 18 17 18 18 18
7 7 7 8 9 10 9 12 11 11 12 13 14 14 14 14 14 15 15 15 15 15 15 15 15 15 15 15 15 15 17 16 16 16 16 16 16 16 16 16 14 15 16 16
5 5 6 8 9 9 10 10 10 11 12 12 13 13 14 14 14 14 13 13 14 13 13 13 14 14 14 15 14 14 15 16 16 16 16 16 16 16 15 15 13 13 13 14
5 6 6 8 10 11 9 9 10 12 11 12 12 12 12 12 12 12 13 12 13 12 13 15 13 13 14 14 16 14 14 16 16 14 13 13 14 15 15 14 13 13 12 13
5 6 8 9 9 9 10 10 11 11 11 11 11 11 11 11 11 12 12 11 13 14 13 13 13 14 15 14 15 15 15 15 15 15 13 13 13 13 13 13 12 12 13 13
7 8 8 8 9 9 9 9 9 9 9 9 9 9 10 9 9 10 10 11 11 11 11 13 13 14 14 14 14 15 15 15 13 13 13 13 13 14 14 13 13 12 12 12
7 6 7 8 7 7 7 7 8 8 7 7 7 8 8 9 9 9 9 8 8 9 10 12 11 11 11 13 13 13 13 13 12 12 12 13 13 12 12 12 13 13 12 12
6 7 8 8 7 8 8 8 8 8 8 7 7 7 8 7 7 9 9 9 8 9 11 12 11 11 11 12 12 11 12 11 10 11 11 11 11 11 11 12 12 12 12 12
7 7 7 7 7 7 8 8 8 8 9 8 7 7 7 8 7 8 6 7 7 9 9 10 10 10 10 10 11 11 10 10 10 10 11 11 10 11 11 11 11 11 11 11
6 6 6 6 7 6 7 8 7 7 7 7 6 7 6 6 6 6 5 6 7 7 6 8 10 10 10 9 9 9 10 9 9 9 9 10 10 9 9 9 9 9 9 9
6 6 5 5 6 6 5 5 5 5 5 6 5 5 5 6 5 5 4 6 5 5 7 7 8 8 8 8 8 8 7 7 8 8 9 9 9 9 8 8 8 8 8 9
6 6 6 7 7 6 6 5 5 5 5 4 4 4 4 4 4 4 4 4 6 5 5 6 6 5 6 6 6 6 6 6 6 6 6 5 6 6 6 7 6 6 6 7
5 6 6 5 5 6 6 5 5 5 4 4 4 4 4 3 3 3 3 4 3 4 4 4 4 4 5 4 5 5 5 4 5 5 6 5 5 4 5 5 4 4 5 5
5 5 6 5 5 4 4 4 4 3 3 3 3 3 3 3 2 3 2 3 3 3 3 3 3 2 3 3 4 4 4 4 3 4 4 4 4 4 4 3 3 3 4 4

GFSNGP_850_temp_030.txt.gz
Temp
28 31 32 31 31 31 31 32 31 33 33 32 33 33 34 34 34 35 34 34 34 34 33 32 31 30 29 28 27 26 25 24 24 23 22 22 21 22 22 23 24 25 24 24
25 29 30 30 31 31 32 32 32 33 34 34 34 33 33 32 32 32 32 32 32 32 32 32 31 31 30 29 28 27 27 26 25 24 23 22 21 21 22 23 23 23 24 24
23 26 27 28 30 31 32 32 33 32 34 34 33 33 32 32 32 31 31 31 31 32 31 31 31 31 30 30 29 28 28 27 26 25 24 24 23 22 22 22 22 23 22 23
21 24 23 28 31 31 32 32 33 33 34 34 33 33 32 31 31 31 31 31 31 31 31 31 31 31 30 29 29 29 28 28 27 26 25 24 24 23 22 22 22 22 22 23
21 22 25 27 29 29 29 31 33 33 34 32 31 31 30 30 30 30 30 30 30 31 31 32 32 31 31 31 29 28 28 27 27 27 26 25 24 23 23 22 21 22 22 21
19 21 22 26 29 30 31 27 27 30 31 31 30 29 27 25 25 26 26 26 27 28 29 31 31 32 31 30 29 29 29 29 27 27 26 25 24 23 23 22 21 21 21 22
18 19 23 21 26 29 26 20 22 24 27 28 27 25 24 24 24 24 24 25 26 26 27 28 29 30 30 30 30 29 29 28 28 27 26 25 24 23 22 21 21 21 21 21
18 19 18 21 23 22 20 20 20 21 22 22 22 23 23 22 22 22 24 25 26 26 27 27 27 28 29 28 29 29 29 28 27 26 25 24 23 22 21 21 21 21 21 21
18 19 21 20 21 20 20 20 20 19 20 21 21 22 21 21 21 22 24 25 24 25 26 27 26 26 26 26 26 27 27 27 26 25 24 23 22 22 21 21 21 21 21 21
17 18 18 19 19 19 19 19 19 18 19 19 19 20 20 20 20 20 22 22 22 23 25 24 23 23 23 24 24 25 25 25 24 24 23 22 22 22 21 21 21 21 21 21
15 17 18 18 18 18 17 17 18 18 18 18 18 18 19 19 18 18 19 19 20 22 22 21 20 21 21 22 22 22 23 23 23 22 22 21 21 22 21 22 21 22 22 22
14 15 15 16 16 17 17 17 17 17 17 17 17 17 17 18 17 16 17 17 18 20 20 19 19 18 18 20 21 22 22 22 22 22 22 22 22 22 22 22 22 22 22 22
10 9 11 13 14 15 15 16 17 17 17 16 16 16 17 18 16 16 15 16 17 18 18 19 18 18 17 18 19 21 22 23 23 23 24 23 23 23 23 23 22 22 21 21
8 9 10 10 12 13 14 14 14 14 15 15 16 17 17 17 15 15 16 16 17 17 17 18 17 17 17 18 19 20 21 22 21 22 22 21 21 21 21 21 20 20 20 20
4 6 7 9 10 12 13 13 13 13 14 15 15 16 16 16 14 14 15 16 17 16 16 16 16 16 16 17 18 19 20 20 20 20 20 20 19 20 19 19 19 18 18 17
4 4 6 8 9 11 12 12 13 12 13 14 14 14 14 14 14 14 15 16 16 16 16 16 16 16 17 17 17 18 18 19 19 18 18 19 19 19 19 18 18 17 15 15
5 6 6 8 9 10 11 12 11 11 12 13 13 12 12 12 13 14 15 14 16 15 15 15 15 16 17 17 16 16 16 16 16 16 15 16 16 15 16 16 15 15 14 14
7 7 7 7 8 8 9 9 10 11 12 11 11 11 12 12 13 12 12 12 12 12 13 14 15 16 16 17 16 15 15 15 14 14 14 13 13 14 13 13 12 12 13 13
5 6 6 6 7 8 8 8 8 8 9 8 7 9 8 10 8 7 10 12 12 12 12 13 15 16 17 15 15 15 14 13 13 13 13 12 12 12 11 11 12 12 12 12
5 5 5 5 5 6 6 5 6 6 6 6 6 7 6 6 7 7 9 8 7 9 10 13 13 14 14 14 14 14 13 13 12 12 12 12 11 10 10 10 11 10 11 11
4 5 5 5 5 5 5 5 7 5 4 4 4 5 5 5 6 7 10 9 7 8 10 11 12 13 13 14 13 13 13 12 11 11 10 10 9 9 9 10 10 10 10 10
6 5 5 4 4 4 4 5 5 4 4 5 4 4 4 4 4 4 4 5 6 6 8 9 9 10 11 12 12 12 12 12 11 11 10 9 9 9 9 9 9 9 8 8
7 7 6 5 5 4 4 4 4 4 4 4 4 4 4 4 4 4 4 4 5 5 6 7 8 9 9 10 10 10 10 10 10 10 10 10 9 8 8 7 7 7 6 7
8 8 8 7 7 6 5 5 5 5 4 4 4 4 4 4 4 5 5 5 6 7 8 8 8 9 9 9 9 9 9 10 9 9 9 8 8 8 7 7 7 6 6 5
8 8 7 8 8 8 7 7 6 6 6 6 6 5 4 4 5 5 5 5 5 6 6 6 7 7 7 7 7 7 7 7 8 9 8 8 8 7 6 6 5 5 5 5
7 8 8 7 7 7 7 7 6 6 6 6 6 6 6 5 6 6 6 6 6 6 6 5 6 7 6 7 7 7 6 6 6 7 7 7 7 7 6 6 5 4 3 3
8 8 8 8 8 7 7 6 6 5 5 6 6 6 5 5 5 5 6 6 6 6 6 6 5 6 6 5 6 6 5 5 5 6 6 5 5 5 5 5 5 4 3 2

GFSNGP_850_temp_033.txt.gz
Temp
21 24 26 28 28 29 27 26 26 27 27 30 31 28 27 31 33 33 34 33 31 30 29 28 28 27 27 26 26 25 25 24 25 25 24 24 24 24 25 24 23 23 23 23
20 24 26 26 29 29 29 28 27 28 27 27 28 29 28 30 31 31 31 32 31 30 30 29 29 29 28 27 27 26 26 27 25 25 24 24 24 24 24 25 25 24 24 23
18 23 25 24 26 29 29 29 28 26 27 28 27 27 27 30 31 31 31 31 31 31 31 29 28 29 28 28 27 27 26 26 26 26 25 25 25 24 24 24 24 24 24 24
16 20 20 23 26 28 29 29 30 29 28 26 26 26 28 31 31 31 31 30 30 31 31 30 30 30 30 29 28 27 27 26 26 25 25 25 25 25 24 24 24 24 25 24
15 19 22 25 24 23 28 20 21 23 28 28 26 25 23 24 25 26 27 28 29 29 29 30 31 30 30 29 29 28 28 27 27 27 26 26 25 25 25 24 23 23 23 23
15 17 20 17 20 22 25 17 20 21 23 27 24 20 20 22 23 24 25 26 28 29 28 28 29 30 31 30 29 29 28 28 28 27 27 27 26 26 25 25 24 24 23 23
15 16 15 18 20 20 20 16 19 19 20 21 20 20 21 22 22 23 24 25 26 27 27 27 28 28 29 30 30 30 29 29 28 28 28 27 27 26 25 24 24 23 22 22
16 16 13 16 19 16 17 18 18 18 18 19 20 20 20 20 19 20 23 24 24 25 26 27 27 28 28 29 28 28 29 29 29 29 28 27 27 26 25 24 23 22 22 21
13 13 15 13 15 18 18 18 18 18 18 18 18 18 18 19 18 18 19 22 23 24 24 24 26 26 27 27 27 27 28 28 28 27 27 26 26 25 24 23 22 22 21 21
12 14 14 15 16 16 17 17 17 17 17 17 17 17 17 17 18 18 18 20 21 22 21 22 23 24 25 26 27 26 26 26 27 26 26 25 24 23 23 22 22 21 21 21
12 13 13 13 12 12 14 16 17 17 17 17 17 16 16 16 17 18 19 20 20 19 19 20 21 22 22 23 23 23 24 24 24 25 25 24 23 22 22 22 22 22 22 22
8 9 9 9 10 11 12 14 15 15 17 17 16 16 16 17 16 16 18 18 20 19 18 18 19 20 20 21 21 21 22 22 23 23 23 22 22 22 21 21 21 21 22 21
5 6 7 7 8 10 12 13 14 14 14 15 15 15 16 16 16 16 17 17 16 17 17 18 18 19 18 18 19 20 21 21 22 22 22 22 22 21 21 20 20 20 20 20
6 4 4 6 8 10 10 12 13 14 13 14 14 15 15 15 15 15 17 17 17 16 17 18 18 18 18 18 18 19 21 22 22 22 22 22 21 21 21 20 20 20 19 19
6 6 5 4 5 8 10 11 12 13 13 13 13 13 14 13 14 14 16 17 18 17 17 17 17 17 18 17 18 19 20 20 21 21 21 21 20 20 20 19 19 19 19 19
5 5 5 4 5 7 8 10 11 12 12 12 12 13 13 13 14 13 14 15 16 17 17 17 16 17 17 17 17 18 19 19 19 19 19 19 19 18 18 17 17 17 17 17
6 5 4 5 6 7 9 10 11 11 11 11 11 12 12 12 14 13 13 14 15 15 15 16 16 17 17 16 17 17 17 17 17 18 18 18 17 17 17 16 16 15 14 14
5 5 6 6 7 8 9 9 9 9 10 10 11 11 12 12 11 12 12 12 13 14 14 14 15 16 16 16 16 15 15 15 15 15 15 15 14 15 15 15 14 13 13 12
3 4 4 4 6 8 8 7 7 7 7 8 8 8 9 10 9 10 10 12 12 13 14 14 14 15 16 15 15 15 15 14 13 13 12 12 12 12 12 12 12 12 12 11
4 4 4 4 4 5 5 5 5 5 5 6 5 5 6 6 7 8 10 9 8 9 10 10 11 12 13 13 13 13 13 12 12 12 12 12 11 10 10 10 10 10 9 9
4 4 3 3 3 3 3 3 4 3 3 3 3 3 3 4 6 7 7 8 7 9 10 10 11 12 12 12 12 12 12 11 11 10 10 10 10 9 9 9 9 9 9 9
5 5 4 4 3 2 2 2 2 3 3 3 2 2 3 3 3 4 4 5 5 7 8 8 9 10 11 11 11 11 11 10 10 10 9 9 9 8 8 8 7 7 7 8
6 6 5 4 4 4 3 3 3 3 2 2 2 3 3 2 3 4 5 4 5 5 6 7 8 9 9 9 10 9 9 9 9 9 8 8 8 7 6 6 6 6 6 7
8 7 6 5 5 4 4 4 4 4 4 4 3 2 2 2 3 4 4 3 4 5 5 6 7 7 8 8 7 7 7 7 7 7 7 7 7 7 7 6 6 5 5 5
8 8 7 7 6 6 6 5 5 5 5 4 4 4 2 2 3 3 3 3 4 4 5 6 6 6 6 7 7 8 8 8 7 7 7 7 6 6 6 5 5 5 5 4
8 7 7 7 7 7 6 6 6 5 5 5 5 5 4 4 4 4 5 5 4 4 4 5 6 6 6 5 6 6 7 6 6 6 6 6 6 5 5 5 4 4 4 4
8 7 7 7 6 7 6 6 5 5 5 5 5 5 5 5 5 5 5 5 5 6 5 5 5 5 5 5 5 5 5 5 5 5 5 5 5 4 4 3 3 3 3 3

GFSNGP_850_temp_036.txt.gz
Temp
11 14 16 18 24 25 24 24 24 25 25 24 24 23 24 28 30 29 29 28 27 26 26 26 24 25 24 25 26 26 25 25 25 24 24 24 24 24 23 23 24 23 22 21
11 18 19 22 24 24 26 26 23 22 24 24 27 25 25 26 27 27 28 28 28 27 26 27 26 26 25 25 27 26 27 26 26 25 25 25 25 25 25 24 24 24 23 23
10 16 22 22 20 23 26 26 26 23 24 26 23 21 20 25 27 27 28 28 27 27 28 30 27 27 26 27 27 27 27 27 27 26 26 26 26 26 25 26 25 25 24 24
10 14 19 18 19 19 20 19 18 19 21 21 21 21 21 23 24 27 27 28 28 28 27 27 26 26 26 25 27 28 27 28 27 26 26 26 25 25 25 25 25 25 25 25
12 14 19 16 15 17 17 16 17 17 22 22 22 22 20 20 22 24 27 28 28 29 28 28 27 27 27 27 27 27 27 28 28 27 27 26 26 26 25 25 25 25 25 25
11 14 14 13 15 19 19 14 16 17 18 20 24 18 16 18 22 23 24 26 27 28 28 29 29 28 28 28 28 28 28 28 27 27 27 27 27 26 26 26 26 25 25 25
13 13 13 13 14 18 14 15 16 15 16 16 16 16 17 19 20 21 23 24 26 27 28 27 27 28 28 28 28 29 29 29 28 28 27 27 27 26 26 25 25 25 25 24
11 10 11 11 12 12 13 15 15 15 16 15 15 16 17 18 18 20 21 23 24 26 26 27 27 27 27 27 26 26 28 29 28 28 27 27 26 26 26 25 25 25 24 23
8 9 9 9 8 10 11 13 16 17 16 16 16 16 16 16 17 18 19 19 20 21 23 24 25 25 26 26 26 26 27 27 27 27 27 27 27 26 25 25 24 23 23 23
9 9 9 9 9 10 10 11 13 15 16 16 16 17 17 16 16 17 18 19 19 20 21 21 21 22 23 23 24 26 27 27 27 27 27 27 27 26 26 25 24 23 22 22
8 7 9 9 9 9 10 11 12 14 15 15 16 16 16 16 15 16 18 19 19 19 20 20 21 21 21 21 21 22 23 25 26 27 27 26 25 25 24 24 23 22 22 22
5 5 4 5 7 8 9 10 11 12 14 15 15 15 15 15 15 16 17 18 18 19 19 19 20 21 21 21 21 21 21 22 22 23 24 24 24 23 23 22 21 21 22 21
4 4 4 5 6 7 8 10 11 12 13 14 14 14 14 14 15 15 16 17 18 17 18 18 18 19 19 18 19 20 20 21 21 21 22 22 22 22 22 21 21 21 21 21
6 6 5 5 5 9 9 10 11 12 12 13 14 14 13 14 14 15 16 17 18 17 18 18 18 18 18 18 18 19 19 21 21 21 21 21 21 21 21 21 21 21 20 19
6 7 5 4 5 6 7 9 9 9 11 12 12 13 13 13 13 14 15 16 17 17 17 17 18 18 18 17 17 18 19 20 21 21 22 22 21 20 20 19 18 18 17 17
5 6 5 5 5 4 5 7 8 10 10 10 11 12 13 13 12 13 14 15 15 15 16 16 17 18 17 17 17 17 19 20 20 21 20 20 20 18 16 16 15 15 15 16
4 4 5 5 4 4 6 7 8 9 10 10 11 11 11 12 12 12 12 13 13 15 15 16 17 18 17 16 16 17 18 18 19 19 19 18 18 17 16 15 15 15 15 14
3 3 3 5 6 6 6 7 8 8 8 9 9 10 10 10 11 12 12 11 13 14 14 15 16 16 16 16 16 17 17 17 17 17 17 16 16 15 15 15 14 14 13 12
4 3 3 3 4 4 5 5 6 6 6 6 7 7 7 8 8 9 10 12 12 14 14 15 15 16 15 15 16 15 16 15 15 15 14 14 13 13 13 12 12 12 11 11
4 4 4 3 3 3 3 3 3 3 4 5 5 6 6 6 6 8 8 10 10 10 12 13 15 15 14 13 14 15 15 14 14 13 13 12 11 11 10 10 10 10 10 10
4 4 4 4 2 2 2 2 2 2 2 2 3 3 3 4 5 6 7 8 7 8 9 11 12 12 11 11 10 12 13 12 13 13 11 11 10 10 10 10 10 10 10 10
5 4 3 3 3 2 2 1 1 1 1 2 2 2 2 2 2 4 5 5 6 7 9 9 9 11 10 10 9 9 9 10 10 10 9 9 9 9 8 8 8 7 7 7
6 5 4 4 3 3 3 2 2 1 0 0 0 1 1 1 1 2 3 4 4 5 7 7 8 8 9 10 9 8 8 8 8 9 9 8 7 7 7 7 7 7 7 6
7 6 5 4 4 4 3 3 3 4 2 2 0 0 0 -0 -0 0 1 2 2 3 5 5 6 7 7 7 7 7 7 7 7 7 7 7 6 6 6 6 6 5 5 5
7 7 6 5 5 5 5 4 4 4 4 4 2 1 1 -0 -0 -0 0 0 2 3 3 3 4 6 6 6 6 6 6 6 6 6 6 6 6 5 5 5 5 5 4 4
7 6 6 6 6 6 6 5 5 4 4 4 4 4 3 3 2 2 2 1 2 3 3 3 4 4 5 5 5 6 6 6 6 6 5 5 5 4 4 4 4 3 3 3
6 6 6 6 6 6 6 5 5 5 5 4 4 4 5 5 4 4 4 3 4 3 3 3 3 3 3 3 3 4 4 5 5 5 5 4 4 3 3 3 3 3 3 3

GFSNGP_850_temp_042.txt.gz
Temp
6 6 7 8 9 11 12 16 20 20 20 21 21 21 20 26 27 28 28 27 26 25 24 23 23 23 24 24 24 23 23 23 23 23 23 24 23 23 23 22 22 22 21 22
5 7 8 8 11 12 13 15 18 20 20 18 21 21 18 17 17 19 22 26 28 26 25 23 23 25 26 25 24 24 23 23 23 23 23 24 24 23 23 23 22 22 22 22
4 9 10 10 12 14 14 13 14 18 17 15 17 16 15 15 15 16 20 23 25 26 25 25 25 25 27 26 24 24 24 24 24 24 24 24 24 24 23 23 23 22 22 23
5 7 13 12 13 15 14 14 14 13 13 16 17 16 16 15 15 15 19 24 25 25 27 26 27 25 25 25 25 25 25 25 24 24 24 24 24 24 24 23 23 23 23 23
5 8 13 13 11 10 11 13 13 14 14 14 16 18 17 15 14 15 17 24 25 25 26 25 25 25 25 26 25 25 26 26 26 26 25 25 24 24 24 24 24 24 24 24
6 8 13 10 10 10 12 12 12 12 14 13 16 16 16 14 15 16 18 23 26 25 25 24 24 24 25 26 27 26 28 27 26 26 26 26 26 25 25 24 24 23 23 24
6 8 10 9 9 11 13 10 10 11 13 13 13 12 12 14 15 16 17 22 25 25 25 25 25 25 25 25 28 27 26 26 26 26 26 26 25 25 24 24 24 24 24 24
8 11 11 8 9 9 9 9 9 9 10 13 13 13 13 14 16 16 16 19 22 25 25 25 25 25 25 25 25 26 26 26 26 26 26 25 25 25 25 24 24 23 23 24
5 7 6 7 6 6 7 8 8 8 9 11 12 13 13 12 15 15 17 17 18 20 23 23 24 24 25 25 25 26 25 25 25 25 25 25 25 25 24 24 24 24 24 24
5 6 6 7 6 6 6 6 9 9 10 11 12 13 13 14 14 15 15 16 17 18 19 19 21 22 22 22 23 24 24 24 24 25 24 24 24 24 24 24 24 24 25 24
5 6 6 7 7 6 7 7 9 11 10 10 12 13 13 14 15 15 16 16 16 17 17 18 19 20 21 22 22 24 24 24 24 23 23 23 23 23 23 23 24 24 24 23
5 5 4 5 6 6 7 7 8 9 11 10 10 12 13 14 14 15 16 16 16 16 17 17 18 19 21 22 23 23 23 24 24 24 25 25 24 24 24 24 24 22 22 21
4 4 5 6 6 6 6 7 7 8 10 10 10 10 12 12 13 14 15 16 16 15 16 16 17 17 18 20 21 23 24 23 23 23 24 24 24 23 23 22 22 21 21 20
3 4 4 5 4 5 5 7 7 7 8 9 9 10 10 10 11 13 14 14 16 16 16 16 16 17 18 18 19 21 21 22 22 21 21 22 22 22 21 21 21 20 20 20
3 3 3 5 5 5 5 6 6 6 6 8 8 9 9 10 11 12 12 13 14 16 17 16 16 16 17 17 18 19 20 20 20 20 20 20 20 20 20 20 20 21 20 19
3 3 4 4 4 4 4 5 4 5 6 6 7 8 9 9 10 10 11 12 13 14 16 17 17 16 16 16 17 17 18 19 20 20 20 20 20 19 19 19 19 18 19 19
3 2 3 3 3 3 4 5 5 5 6 6 7 7 9 9 9 9 10 11 11 13 14 16 17 17 16 16 17 17 18 18 18 19 20 19 18 18 18 17 17 17 16 16
3 2 2 2 2 2 2 3 4 4 5 5 6 6 6 7 8 8 9 10 11 11 12 13 15 17 16 16 17 17 17 17 17 18 18 18 18 17 16 16 15 15 14 14
4 3 2 2 2 2 2 2 3 3 3 4 4 5 5 6 6 5 7 7 8 10 11 11 13 14 16 16 16 16 16 17 17 17 17 17 16 15 15 14 14 13 13 12
3 3 2 2 1 2 2 2 1 2 2 2 3 3 4 4 5 5 4 5 6 7 8 10 11 12 13 14 14 15 15 16 16 16 17 16 15 14 13 13 12 12 12 11
4 4 3 3 2 2 2 2 1 1 1 2 2 1 2 2 3 3 4 4 4 5 6 9 10 10 12 12 13 14 14 14 15 15 14 13 12 12 12 11 10 9 9 9
5 4 4 4 3 3 2 2 2 2 1 1 1 1 2 2 2 2 1 2 3 4 5 7 8 9 10 11 12 13 13 14 13 13 12 11 10 9 8 8 8 7 7 7
6 5 5 4 4 4 3 2 1 2 2 1 1 1 1 1 1 1 1 1 1 2 4 6 7 7 8 10 11 11 12 12 11 11 10 8 8 6 5 6 6 5 5 6
6 6 6 5 5 4 4 4 3 2 1 1 1 1 1 1 1 0 1 1 1 1 1 3 5 6 6 8 9 9 9 9 7 6 6 6 6 5 5 5 5 5 5 5
6 6 6 6 5 5 5 4 4 3 3 2 1 2 2 1 1 0 -0 0 1 1 1 2 3 5 6 5 6 6 6 5 5 5 5 5 5 4 4 4 4 3 4 4
6 6 6 5 5 5 5 4 4 4 4 4 3 2 2 1 1 1 1 -0 -0 1 1 0 1 3 4 4 4 4 4 4 3 3 4 3 3 3 3 3 2 2 2 2
6 6 6 5 5 5 5 4 4 4 4 4 4 3 3 2 1 1 2 0 -0 -0 -0 -0 -0 0 1 1 1 2 2 2 2 1 0 0 0 1 2 2 2 2 2 1

GFSNGP_850_temp_045.txt.gz
Temp
9 9 10 10 10 11 12 18 22 23 24 25 26 27 27 26 26 24 24 24 24 24 24 23 22 21 21 21 23 24 24 24 25 24 24 24 24 23 23 23 22 22 21 21
8 10 10 9 11 12 13 14 19 21 24 23 23 24 24 24 22 22 22 23 23 23 24 24 23 23 24 22 23 23 24 25 24 24 24 24 24 24 23 23 23 22 22 21
8 10 10 11 12 13 14 17 19 21 24 19 21 21 19 18 18 18 19 19 20 22 23 25 25 24 24 25 23 24 25 25 25 24 24 24 24 24 24 23 23 23 22 22
7 8 8 15 17 16 16 15 17 19 18 18 19 19 17 15 15 16 17 18 19 22 23 24 25 23 23 22 23 24 25 25 25 25 24 24 23 24 24 24 23 23 23 23
6 7 8 13 14 16 17 13 13 15 16 17 18 18 19 16 14 14 15 16 17 20 26 24 23 24 23 22 23 24 25 25 26 25 25 24 24 24 24 23 23 23 23 23
5 7 9 10 11 12 14 14 12 13 14 17 19 21 18 14 14 15 15 17 18 24 24 23 23 23 23 23 24 26 26 26 26 26 26 25 25 25 24 24 24 24 24 24
6 6 6 9 11 12 14 12 10 10 11 14 14 13 12 12 14 15 15 16 20 22 23 23 22 23 23 22 26 27 24 25 25 26 26 26 26 25 25 24 24 24 24 24
5 6 6 6 10 12 10 9 9 9 9 12 12 11 11 13 14 14 15 16 18 20 22 24 24 25 24 24 25 24 25 25 26 25 25 25 25 25 24 24 24 24 24 24
5 5 3 6 7 8 7 8 7 8 8 11 12 12 12 13 12 14 15 15 16 17 18 20 22 23 23 24 24 24 24 25 25 25 25 24 25 24 23 24 23 23 23 23
4 5 5 7 7 7 6 6 7 7 8 8 10 11 11 12 13 14 15 15 15 16 17 19 20 20 21 22 23 23 24 25 25 25 25 24 24 23 23 23 23 22 21 21
5 5 5 6 6 5 6 6 8 9 8 9 9 9 10 11 12 13 14 15 15 15 16 17 18 19 20 21 21 22 22 24 24 24 24 24 22 21 22 22 22 22 21 23
5 4 4 5 5 5 5 5 6 7 10 10 9 8 9 10 10 12 14 14 15 15 16 16 17 18 18 19 20 20 19 20 21 21 23 22 23 23 23 23 23 21 22 21
4 3 4 4 5 5 5 5 6 6 7 8 8 8 9 10 10 11 12 14 14 15 15 15 16 17 18 18 19 20 20 21 21 21 19 23 22 23 22 22 22 21 20 20
3 3 4 5 5 4 5 6 6 6 6 7 7 8 9 9 9 10 11 13 14 14 15 15 15 16 17 17 17 20 20 21 23 20 20 22 23 23 22 22 22 21 20 19
3 3 3 4 4 4 5 5 5 5 6 7 8 8 9 8 8 8 10 12 13 14 15 15 15 15 16 16 17 17 18 19 18 19 19 20 21 21 21 21 21 19 19 19
3 2 2 2 2 3 4 4 4 5 5 6 7 7 7 7 7 9 10 10 12 13 14 14 15 15 15 16 16 17 18 18 19 19 20 20 20 20 19 19 19 18 18 18
2 2 2 2 2 2 2 3 3 4 5 5 5 6 7 7 7 8 9 10 10 11 12 14 15 15 15 15 16 16 17 18 18 19 19 19 19 19 18 18 18 18 17 17
2 2 2 2 1 1 1 1 2 3 3 3 3 5 6 6 5 6 7 8 9 10 11 13 14 15 15 14 15 15 16 17 18 18 18 17 18 18 18 17 16 15 15 14
3 2 2 2 1 1 1 1 1 2 2 2 2 3 3 4 4 4 5 6 7 6 10 11 12 15 15 14 14 14 14 16 16 17 17 17 17 16 16 16 15 14 14 13
4 3 3 2 2 2 1 1 1 1 1 1 1 2 2 3 3 3 4 6 5 4 6 7 9 12 14 15 14 13 13 14 15 16 16 15 15 16 15 15 14 13 13 12
4 4 4 4 3 2 2 2 1 0 0 1 1 1 1 1 2 2 3 3 4 6 6 7 6 9 12 14 13 12 12 13 14 15 16 15 14 13 13 13 13 12 11 11
5 5 4 4 4 4 3 2 2 1 0 0 0 1 1 1 1 1 1 1 2 3 4 6 7 8 9 10 13 11 11 12 13 14 14 12 12 12 12 12 11 10 9 8
6 5 5 5 4 4 4 4 3 2 1 0 0 0 0 0 0 1 1 1 1 2 2 3 5 6 8 8 9 10 10 11 11 11 11 11 11 9 9 9 8 8 7 6
6 5 5 5 5 4 4 4 4 3 3 2 1 -0 0 -0 -0 -0 0 1 1 1 1 2 4 6 7 7 7 8 9 8 8 6 7 8 7 5 5 6 6 5 6 5
6 6 6 5 5 5 5 4 4 4 3 2 2 1 0 -0 -0 0 -0 0 1 1 1 1 3 4 5 4 4 4 5 4 4 2 2 3 3 3 4 4 4 4 4 4
6 6 5 5 5 5 5 4 4 3 3 3 3 2 1 1 1 0 -0 -0 0 0 1 1 1 2 2 1 1 1 2 1 1 1 1 1 2 1 2 2 2 2 2 2
6 6 5 5 5 5 4 4 4 3 4 4 3 3 2 1 1 1 0 -0 -1 -0 -1 1 1 0 0 0 0 0 0 0 0 -0 -0 -0 -0 -0 0 1 1 1 2 2

GFSNGP_850_temp_048.txt.gz
Temp
13 14 14 15 16 16 16 17 18 22 24 26 28 28 29 29 29 28 28 28 28 28 27 26 25 24 23 24 23 24 22 22 21 24 24 23 23 23 23 23 23 22 22 21
12 14 14 14 15 16 16 16 17 18 20 24 28 27 28 28 28 28 27 27 27 27 27 26 25 24 23 22 23 23 22 22 21 24 24 24 24 24 23 23 23 23 22 22
11 13 14 14 15 15 17 17 17 18 21 25 27 27 27 27 27 26 25 25 25 25 26 26 25 24 23 22 22 22 22 21 21 24 25 25 25 24 24 24 23 23 23 22
11 12 10 14 16 17 17 18 19 19 21 24 25 24 23 21 20 21 21 21 22 23 24 25 26 25 24 23 22 21 21 21 22 23 24 25 24 24 24 24 24 23 23 23
8 10 12 13 14 16 17 18 18 20 22 23 24 24 22 18 17 17 17 18 19 20 22 23 24 26 24 23 22 21 21 22 23 24 24 24 24 24 24 24 23 24 24 23
9 7 8 12 7 6 13 16 17 18 22 24 23 24 26 16 15 15 16 17 17 19 21 22 22 25 25 23 22 20 21 25 24 24 25 24 24 24 24 24 24 23 23 23
7 8 9 11 7 5 9 15 15 14 14 17 23 17 13 12 13 14 15 16 18 20 21 22 22 25 25 23 22 23 21 20 20 22 25 24 24 25 25 24 23 24 22 23
6 6 6 6 4 7 11 9 8 9 12 13 12 12 11 11 12 15 16 16 21 23 23 24 24 24 24 22 22 21 20 20 21 24 24 21 23 23 23 24 24 24 24 23
5 7 5 3 3 6 7 7 7 9 11 12 12 11 11 11 11 12 15 17 19 22 23 23 23 23 22 21 21 20 21 20 20 22 24 21 22 21 20 21 21 21 21 21
3 4 3 4 4 6 6 6 6 8 8 9 11 11 11 11 10 10 13 15 16 18 19 20 21 21 21 20 20 20 20 20 20 19 20 20 20 20 20 21 20 22 22 22
3 2 3 5 4 5 6 5 6 7 7 7 9 10 10 10 10 10 10 13 15 16 17 17 17 18 19 19 19 20 20 20 20 20 19 20 20 21 21 21 22 22 23 23
4 3 3 3 5 5 6 5 5 6 6 7 8 8 10 10 10 10 10 10 12 14 15 15 15 16 16 18 19 19 19 20 21 21 21 21 20 20 20 21 21 22 22 22
3 3 4 4 4 4 5 5 5 6 6 7 7 8 9 10 10 10 10 10 10 10 13 13 13 14 15 16 18 19 20 21 21 21 20 20 19 18 18 18 19 20 21 21
2 3 3 3 3 4 5 5 5 5 6 6 7 8 9 9 9 10 9 9 10 10 11 11 13 14 15 16 17 18 20 22 19 20 21 22 21 20 22 22 17 18 19 19
3 3 3 3 3 3 3 4 5 5 5 6 6 7 7 8 8 8 9 9 9 10 10 12 13 14 15 15 16 17 17 18 19 20 21 21 23 24 26 20 17 17 18 19
4 3 3 3 2 2 2 2 3 3 4 4 4 5 6 6 7 7 8 8 9 9 9 10 12 14 15 15 15 16 16 18 19 18 21 19 20 21 21 18 17 17 18 19
5 4 3 3 2 2 2 2 2 2 3 3 3 3 4 5 5 7 7 7 8 9 9 12 12 14 15 15 14 14 15 16 18 19 22 21 19 18 18 17 16 17 18 18
5 4 4 3 3 3 3 2 1 2 2 2 2 2 3 3 3 5 6 7 8 9 10 11 12 13 14 15 15 14 14 14 15 17 17 18 17 17 17 17 17 17 17 16
5 5 4 4 4 4 4 3 1 1 1 1 2 2 2 3 3 3 4 6 7 8 10 10 11 13 14 14 15 14 14 14 13 13 15 16 15 15 15 15 15 15 15 15
5 5 5 5 4 4 4 4 3 2 1 1 1 1 1 2 2 2 3 3 4 4 6 8 9 11 13 14 15 13 14 13 12 12 12 14 14 15 15 15 14 14 14 14
6 5 5 5 5 5 4 4 4 3 1 1 1 1 1 1 1 1 2 2 2 5 5 7 8 10 11 12 13 11 13 13 14 13 12 13 13 14 14 14 14 14 13 13
6 6 5 5 6 5 5 5 4 3 3 2 1 1 1 1 1 1 1 1 2 3 4 5 7 9 10 10 10 10 11 11 12 13 13 12 12 13 13 13 12 12 12 11
7 7 6 6 6 6 6 5 5 4 3 3 2 1 1 0 0 1 1 1 1 2 3 5 6 6 7 8 8 9 10 10 10 10 12 12 11 10 10 11 10 9 9 9
7 7 6 6 6 6 5 5 5 5 4 3 3 2 1 1 0 0 1 1 1 1 1 2 4 6 6 7 7 8 8 7 8 8 9 10 10 10 5 6 6 6 5 5
7 6 6 6 7 7 6 5 6 6 5 5 4 3 2 1 1 0 -0 1 1 1 1 2 3 4 4 4 4 4 4 4 4 5 3 4 6 4 3 2 3 2 3 4
7 7 6 6 6 6 6 6 6 5 6 6 5 5 3 2 1 1 0 -0 1 1 1 1 1 1 1 0 0 0 -0 -0 -0 -0 -0 -0 0 0 0 0 0 1 2 2
6 6 6 6 6 6 5 5 6 5 5 5 5 5 4 3 1 1 1 -0 -0 -0 -0 0 0 0 0 0 0 -0 -0 -0 -1 -1 -1 -1 -1 -1 -0 0 1 1 1 1